TimeEDT,TemperatureF,Dew PointF,Humidity,Sea Level PressureIn,VisibilityMPH,Wind Direction,Wind SpeedMPH,Gust SpeedMPH,PrecipitationIn,Events,Conditions,WindDirDegrees,DateUTC
12:02 AM,53.6,53.6,100,29.96,0.8,Calm,Calm,-,N/A,,Overcast,0,2013-05-08 04:02:00
12:14 AM,53.6,53.6,100,29.95,0.2,Calm,Calm,-,N/A,Fog,Fog,0,2013-05-08 04:14:00
12:17 AM,53.6,53.6,100,29.95,0.5,Calm,Calm,-,N/A,Fog,Fog,0,2013-05-08 04:17:00
12:53 AM,54.0,54.0,100,29.94,1.0,Calm,Calm,-,N/A,,Mostly Cloudy,0,2013-05-08 04:53:00
1:06 AM,53.6,53.6,100,29.94,0.8,Calm,Calm,-,N/A,,Overcast,0,2013-05-08 05:06:00
1:15 AM,53.6,53.6,100,29.94,2.5,Calm,Calm,-,N/A,,Overcast,0,2013-05-08 05:15:00
1:22 AM,53.6,53.6,100,29.94,4.0,Calm,Calm,-,N/A,,Overcast,0,2013-05-08 05:22:00
1:35 AM,53.6,53.6,100,29.93,5.0,NW,3.5,-,N/A,,Overcast,310,2013-05-08 05:35:00
1:53 AM,55.0,54.0,96,29.92,8.0,Calm,Calm,-,N/A,,Overcast,0,2013-05-08 05:53:00
2:04 AM,53.6,53.6,100,29.92,5.0,Calm,Calm,-,N/A,,Overcast,0,2013-05-08 06:04:00
2:53 AM,55.9,55.0,97,29.90,5.0,Calm,Calm,-,0.01,Rain,Light Rain,0,2013-05-08 06:53:00
3:53 AM,55.9,55.0,97,29.89,7.0,NNE,4.6,-,0.02,Rain,Light Rain,20,2013-05-08 07:53:00
4:22 AM,57.2,55.4,94,29.91,8.0,NE,4.6,-,0.01,Rain,Light Rain,40,2013-05-08 08:22:00
4:48 AM,57.2,55.4,94,29.91,9.0,NE,6.9,-,0.01,,Overcast,40,2013-05-08 08:48:00
4:53 AM,57.0,55.9,96,29.90,9.0,NE,8.1,-,0.01,,Overcast,50,2013-05-08 08:53:00
5:27 AM,57.2,55.4,94,29.91,10.0,East,5.8,-,0.00,Rain,Light Rain,100,2013-05-08 09:27:00
5:37 AM,57.2,55.4,94,29.91,10.0,East,4.6,-,0.00,Rain,Light Rain,90,2013-05-08 09:37:00
5:53 AM,55.9,54.0,93,29.91,7.0,East,5.8,-,0.01,Rain,Light Rain,80,2013-05-08 09:53:00
6:34 AM,55.4,53.6,94,29.92,10.0,Calm,Calm,-,0.01,Rain,Light Rain,0,2013-05-08 10:34:00
6:53 AM,55.9,54.0,93,29.94,4.0,East,3.5,-,0.01,Rain,Light Rain,100,2013-05-08 10:53:00
7:26 AM,55.4,53.6,94,29.94,10.0,Calm,Calm,-,0.01,,Overcast,0,2013-05-08 11:26:00
7:53 AM,55.9,54.0,93,29.95,10.0,Calm,Calm,-,0.01,,Overcast,0,2013-05-08 11:53:00
8:05 AM,55.4,55.4,100,29.96,2.0,Calm,Calm,-,N/A,,Overcast,0,2013-05-08 12:05:00
8:53 AM,57.0,55.0,93,29.96,6.0,North,6.9,-,N/A,,Overcast,4,2013-05-08 12:53:00
9:53 AM,57.0,55.0,93,29.99,6.0,East,6.9,-,0.00,Rain,Light Rain,80,2013-05-08 13:53:00
10:53 AM,60.1,54.0,80,29.99,10.0,ENE,6.9,-,0.00,,Overcast,70,2013-05-08 14:53:00
11:01 AM,60.8,53.6,77,30.00,10.0,SE,5.8,-,N/A,,Overcast,130,2013-05-08 15:01:00
11:53 AM,63.0,53.1,70,30.00,10.0,Variable,6.9,-,N/A,,Mostly Cloudy,0,2013-05-08 15:53:00
12:53 PM,64.9,52.0,63,29.99,10.0,ENE,4.6,-,N/A,,Mostly Cloudy,70,2013-05-08 16:53:00
1:00 PM,66.2,51.8,60,29.99,10.0,Variable,4.6,-,N/A,,Mostly Cloudy,0,2013-05-08 17:00:00
1:21 PM,64.4,50.0,59,29.98,0.8,Calm,Calm,-,N/A,,Haze,0,2013-05-08 17:21:00
1:24 PM,66.2,50.0,56,29.98,4.0,Variable,5.8,-,N/A,,Haze,0,2013-05-08 17:24:00
1:53 PM,66.9,48.9,52,29.97,10.0,Calm,Calm,-,N/A,,Mostly Cloudy,0,2013-05-08 17:53:00
2:53 PM,66.9,48.9,52,29.97,10.0,East,5.8,-,N/A,,Overcast,80,2013-05-08 18:53:00
3:53 PM,69.1,48.9,49,29.96,10.0,Variable,3.5,-,N/A,,Mostly Cloudy,0,2013-05-08 19:53:00
4:53 PM,70.0,48.9,47,29.95,10.0,Calm,Calm,-,N/A,,Clear,0,2013-05-08 20:53:00
5:53 PM,72.0,48.9,44,29.94,10.0,West,3.5,-,N/A,,Clear,270,2013-05-08 21:53:00
6:53 PM,72.0,50.0,46,29.94,10.0,NNW,4.6,-,N/A,,Clear,330,2013-05-08 22:53:00
7:53 PM,66.9,48.9,52,29.95,10.0,WSW,3.5,-,N/A,,Partly Cloudy,250,2013-05-08 23:53:00
8:53 PM,62.1,52.0,70,29.97,10.0,West,3.5,-,N/A,,Overcast,280,2013-05-09 00:53:00
9:53 PM,64.0,51.1,63,29.99,10.0,WSW,3.5,-,N/A,,Overcast,250,2013-05-09 01:53:00
10:53 PM,60.1,54.0,80,30.00,10.0,Calm,Calm,-,0.02,Rain,Light Rain,0,2013-05-09 02:53:00
11:53 PM,59.0,57.0,93,29.99,10.0,Calm,Calm,-,0.00,,Overcast,0,2013-05-09 03:53:00